Location: Helsinki
(60.1699°N, 24.9384°E)
Time: 21:11:34
(UTC+03:00)

A-11 Canister half - Pass Details

Date: 28 May 2024
Orbit: 1525 x 1683 km, 47.3° (Epoch: 14 June)

Event Time Altitude Azimuth Distance (km) Brightness Sun altitude
Rises 23:41:27 0° 251° (WSW) 4,697 11.6 -5.9°
Reaches altitude 10° 23:44:43 10° 244° (WSW) 3,729 11.0 -6.0°
Maximum altitude 23:53:07 38° 181° (S) 2,239 9.4 -6.4°
Drops below altitude 10° 00:01:45 10° 118° (ESE) 3,836 10.7 -6.7°
Sets 00:05:10 0° 111° (ESE) 4,844 11.2 -6.9°
